Retour au catalogue

CHUTIAN XINGZUO 2-01 XING

ActifCommunicationsSSO
NORAD 66409·PAYLOAD·🇨🇳 China
Ce nom de satellite n'a pas encore été confirmé par des sources officielles.

Lancé Nov 9, 2025 depuis Jiuquan Satellite Launch Center

Loading…

Prochains Passages (prochaines 24 heures)

TLE

FraisSource: Space-Track

Époque: Sep 14, 2026, 10:44 UTC

1 66409U 25256A   26257.44745272  .00000333  00000-0  96554-4 0  9994
2 66409  98.2433 321.7960 0014717  60.6549 299.6113 14.50275432 44837

Suivez CHUTIAN XINGZUO 2-01 XING en temps réel avec AllMySat

Download on the App Store